Location: Góry Miechowskie
(50.3599°N, 20.1803°E)
Time: 20:04:42
(UTC+00:00)

Cosmos 2219 - Pass Details

Date: 26 September 2024
Orbit: 831 x 860 km, 71.1° (Epoch: 13 October)

Event Time Altitude Azimuth Distance (km) Brightness Sun altitude
Exits shadow 02:21:48 18° 186° (S) 1,944 4.8 -21.0°
Maximum altitude 02:25:54 58° 112° (ESE) 991 3.7 -20.4°
Drops below altitude 10° 02:31:32 10° 35° (NE) 2,502 6.5 -19.6°
Sets 02:34:02 0° 32° (NNE) 3,446 7.3 -19.2°
